This is the latest recevied weather packets stored in our database for station/object WX4HP-13. If no packets are shown the sender has not sent any weather packets the latest 10 day(s).
| Time | Temp. | Humidity | Pressure | Rain* | Wind** | Luminosity | Snow |
|---|---|---|---|---|---|---|---|
| 1777934095 | 24.44° C | 40% | 1011.8 hPa | 0 mm | - | - | - |
| 1777933796 | 24.44° C | 41% | 1011.8 hPa | 0 mm | - | - | - |
| 1777933497 | 24.44° C | 41% | 1011.9 hPa | 0 mm | - | - | - |
| 1777933197 | 24.44° C | 40% | 1011.9 hPa | 0 mm | - | - | - |
| 1777932896 | 24.44° C | 41% | 1012 hPa | 0 mm | - | - | - |
| 1777932595 | 25° C | 40% | 1012 hPa | 0 mm | - | - | - |
| 1777932296 | 25° C | 40% | 1012 hPa | 0 mm | - | - | - |
| 1777931996 | 25° C | 39% | 1011.9 hPa | 0 mm | - | - | - |
| 1777931697 | 25° C | 38% | 1012 hPa | 0 mm | - | - | - |
| 1777931397 | 25° C | 38% | 1012.1 hPa | 0 mm | - | - | - |
| 1777931097 | 25.56° C | 37% | 1011.9 hPa | 0 mm | - | - | - |
| 1777930796 | 25.56° C | 39% | 1011.8 hPa | 0 mm | - | - | - |
| 1777930497 | 25° C | 40% | 1011.9 hPa | 0 mm | - | - | - |
| 1777930197 | 25° C | 40% | 1012 hPa | 0 mm | - | - | - |
| 1777929897 | 25° C | 40% | 1011.9 hPa | 0 mm | - | - | - |
| 1777929597 | 25° C | 40% | 1012.1 hPa | 0 mm | - | - | - |
| 1777929296 | 25° C | 39% | 1012.1 hPa | 0 mm | - | - | - |
| 1777928996 | 25.56° C | 38% | 1012.1 hPa | 0 mm | - | - | - |
| 1777928696 | 25.56° C | 39% | 1012 hPa | 0 mm | - | - | - |
| 1777928397 | 25° C | 36% | 1012.1 hPa | 0 mm | - | - | - |
| 1777928097 | 25° C | 38% | 1012.2 hPa | 0 mm | - | - | - |
| 1777927797 | 25° C | 38% | 1012.2 hPa | 0 mm | - | - | - |
| 1777927497 | 25° C | 40% | 1012.2 hPa | 0 mm | - | - | - |
| 1777927196 | 25° C | 41% | 1012.3 hPa | 0 mm | - | - | - |
| 1777926896 | 25.56° C | 39% | 1012.4 hPa | 0 mm | - | - | - |
* Rain latest hour (hover to see other rain measurements)
** Current wind speed in m/s (hover to see current wind gust speed)